| time (UTC) | temp F | wind direction | speed MPH | gust MPH | rain 1hr in | rain 24hr in | rain mn in | humidity % | barometer mb |
| 20260506122023 | 64 | 279 | 4.0 | 7.0 | 0.00 | 0.04 | 0.00 | 51 | 1031.6 |
| 20260506121022 | 64 | 294 | 3.0 | 6.0 | 0.00 | 0.04 | 0.00 | 50 | 1031.4 |
| 20260506120023 | 64 | 288 | 3.0 | 6.0 | 0.00 | 0.04 | 0.00 | 50 | 1031.9 |
| 20260506115023 | 65 | 282 | 3.0 | 8.0 | 0.00 | 0.04 | 0.00 | 47 | 1031.8 |
| 20260506114023 | 64 | 274 | 4.0 | 6.0 | 0.00 | 0.04 | 0.00 | 47 | 1031.8 |
| 20260506113023 | 65 | 213 | 2.0 | 6.0 | 0.00 | 0.04 | 0.00 | 51 | 1031.9 |
| 20260506112023 | 65 | 244 | 3.0 | 6.0 | 0.00 | 0.04 | 0.00 | 52 | 1032.0 |
| 20260506111022 | 64 | 236 | 3.0 | 5.0 | 0.00 | 0.04 | 0.00 | 51 | 1032.1 |
| 20260506110023 | 64 | 248 | 3.0 | 6.0 | 0.00 | 0.04 | 0.00 | 54 | 1032.2 |
| 20260506105022 | 64 | 249 | 3.0 | 8.0 | 0.00 | 0.04 | 0.00 | 55 | 1032.0 |
| 20260506104023 | 63 | 237 | 2.0 | 5.0 | 0.00 | 0.04 | 0.00 | 61 | 1031.9 |
| 20260506103022 | 62 | 257 | 2.0 | 4.0 | 0.00 | 0.04 | 0.00 | 61 | 1032.5 |
| 20260506102022 | 62 | 274 | 1.0 | 4.0 | 0.00 | 0.04 | 0.00 | 60 | 1032.7 |
| 20260506101022 | 62 | 221 | 1.0 | 3.0 | 0.00 | 0.04 | 0.00 | 59 | 1032.7 |
| 20260506100023 | 62 | 212 | 2.0 | 4.0 | 0.00 | 0.04 | 0.00 | 60 | 1033.1 |
| 20260506095022 | 62 | 266 | 2.0 | 4.0 | 0.00 | 0.04 | 0.00 | 59 | 1032.9 |
| 20260506094022 | 62 | 283 | 2.0 | 4.0 | 0.00 | 0.04 | 0.00 | 60 | 1032.9 |
| 20260506093023 | 63 | 242 | 2.0 | 5.0 | 0.00 | 0.04 | 0.00 | 60 | 1032.8 |
| 20260506092022 | 63 | 272 | 2.0 | 4.0 | 0.00 | 0.04 | 0.00 | 61 | 1033.0 |
| 20260506091022 | 62 | 251 | 2.0 | 4.0 | 0.00 | 0.04 | 0.00 | 63 | 1032.9 |
| 20260506090023 | 62 | 233 | 2.0 | 4.0 | 0.00 | 0.04 | 0.00 | 66 | 1032.9 |
| 20260506085023 | 60 | 257 | 1.0 | 4.0 | 0.00 | 0.04 | 0.00 | 68 | 1033.0 |
| 20260506084022 | 59 | 315 | 1.0 | 2.0 | 0.00 | 0.04 | 0.00 | 70 | 1032.9 |
| 20260506083023 | 59 | 334 | 1.0 | 2.0 | 0.00 | 0.04 | 0.00 | 70 | 1033.1 |
| 20260506082022 | 59 | 213 | 1.0 | 3.0 | 0.00 | 0.04 | 0.00 | 71 | 1033.1 |
| 20260506081022 | 58 | 245 | 1.0 | 2.0 | 0.00 | 0.04 | 0.00 | 72 | 1032.9 |
| 20260506073023 | 57 | 165 | 1.0 | 3.0 | 0.00 | 0.04 | 0.00 | 74 | 1033.2 |
| 20260506072022 | 57 | 337 | 1.0 | 3.0 | 0.00 | 0.04 | 0.00 | 77 | 1033.0 |
| 20260506071022 | 56 | 316 | 1.0 | 2.0 | 0.00 | 0.04 | 0.00 | 79 | 1033.2 |
| 20260506062022 | 53 | 270 | 1.0 | 2.0 | 0.00 | 0.04 | 0.00 | 84 | 1033.1 |
| 20260506061022 | 53 | 0 | 0.0 | 1.0 | 0.00 | 0.04 | 0.00 | 86 | 1033.2 |
| 20260506051022 | 52 | 311 | 1.0 | 3.0 | 0.00 | 0.04 | 0.00 | 94 | 1033.4 |
| 20260506045022 | 49 | 0 | 0.0 | 1.0 | 0.00 | 0.04 | 0.00 | 94 | 1033.7 |
| 20260506044022 | 48 | 298 | 0.0 | 2.0 | 0.00 | 0.04 | 0.00 | 93 | 1033.9 |
| 20260506043022 | 47 | 292 | 1.0 | 2.0 | 0.00 | 0.04 | 0.00 | 92 | 1033.7 |
| 20260506042022 | 47 | 0 | 0.0 | 0.0 | 0.00 | 0.04 | 0.00 | 92 | 1033.8 |
| 20260506041023 | 47 | 164 | 1.0 | 2.0 | 0.00 | 0.04 | 0.00 | 92 | 1033.8 |
| 20260506040023 | 48 | 199 | 0.0 | 2.0 | 0.00 | 0.04 | 0.00 | 92 | 1033.8 |
| 20260506035022 | 48 | 211 | 0.0 | 2.0 | 0.00 | 0.04 | 0.00 | 91 | 1034.1 |
| 20260506034022 | 48 | 279 | 0.0 | 2.0 | 0.00 | 0.04 | 0.00 | 91 | 1034.1 |
| 20260506033023 | 48 | 292 | 0.0 | 2.0 | 0.00 | 0.04 | 0.00 | 91 | 1034.1 |
| 20260506032022 | 49 | 131 | 0.0 | 2.0 | 0.00 | 0.04 | 0.00 | 90 | 1034.5 |
| 20260506031022 | 49 | 144 | 0.0 | 2.0 | 0.00 | 0.04 | 0.00 | 90 | 1034.3 |
| 20260506030023 | 49 | 172 | 0.0 | 2.0 | 0.00 | 0.04 | 0.00 | 89 | 1034.1 |
| 20260506025022 | 50 | 0 | 0.0 | 0.0 | 0.00 | 0.04 | 0.00 | 90 | 1034.2 |
| 20260506024023 | 51 | 217 | 0.0 | 2.0 | 0.00 | 0.04 | 0.00 | 90 | 1034.5 |
| 20260506023022 | 51 | 230 | 1.0 | 4.0 | 0.00 | 0.04 | 0.00 | 91 | 1034.2 |
| 20260506022022 | 51 | 315 | 1.0 | 2.0 | 0.00 | 0.04 | 0.00 | 92 | 1034.3 |
| 20260506021022 | 51 | 155 | 1.0 | 4.0 | 0.00 | 0.04 | 0.00 | 94 | 1034.5 |
| 20260506020023 | 50 | 87 | 1.0 | 2.0 | 0.00 | 0.04 | 0.00 | 95 | 1034.9 |
| 20260506015022 | 50 | 131 | 1.0 | 4.0 | 0.00 | 0.04 | 0.00 | 96 | 1034.6 |
| 20260506014022 | 49 | 147 | 1.0 | 4.0 | 0.00 | 0.04 | 0.00 | 96 | 1034.7 |
| 20260506013023 | 49 | 159 | 0.0 | 2.0 | 0.00 | 0.04 | 0.00 | 96 | 1034.4 |
| 20260506012023 | 49 | 264 | 0.0 | 2.0 | 0.00 | 0.04 | 0.00 | 96 | 1034.6 |
| 20260506011022 | 50 | 344 | 1.0 | 3.0 | 0.00 | 0.04 | 0.00 | 96 | 1034.9 |
| 20260506010023 | 50 | 0 | 0.0 | 1.0 | 0.00 | 0.04 | 0.00 | 95 | 1035.0 |
| 20260506005022 | 50 | 168 | 0.0 | 2.0 | 0.00 | 0.04 | 0.00 | 95 | 1034.8 |
| 20260506004022 | 49 | 241 | 0.0 | 2.0 | 0.00 | 0.04 | 0.00 | 95 | 1034.9 |
| 20260506003023 | 49 | 327 | 0.0 | 2.0 | 0.00 | 0.04 | 0.00 | 94 | 1034.9 |
| 20260506002023 | 50 | 294 | 0.0 | 2.0 | 0.00 | 0.04 | 0.00 | 95 | 1035.0 |
| 20260506001023 | 50 | 353 | 1.0 | 2.0 | 0.00 | 0.04 | 0.00 | 95 | 1035.1 |
| 20260506000023 | 50 | 325 | 0.0 | 2.0 | 0.00 | 0.04 | 0.00 | 94 | 1035.3 |
| 20260505235022 | 50 | 311 | 1.0 | 2.0 | 0.00 | 0.04 | 0.00 | 94 | 1035.2 |
| 20260505234022 | 50 | 283 | 0.0 | 2.0 | 0.00 | 0.04 | 0.00 | 94 | 1035.3 |
| 20260505233023 | 51 | 291 | 0.0 | 2.0 | 0.00 | 0.04 | 0.00 | 94 | 1035.5 |
| 20260505232022 | 51 | 160 | 1.0 | 3.0 | 0.00 | 0.04 | 0.00 | 93 | 1035.4 |
| 20260505231022 | 51 | 199 | 1.0 | 2.0 | 0.00 | 0.04 | 0.00 | 93 | 1035.4 |
| 20260505230023 | 51 | 205 | 1.0 | 2.0 | 0.00 | 0.04 | 0.00 | 93 | 1035.3 |
| 20260505225022 | 51 | 236 | 1.0 | 3.0 | 0.00 | 0.04 | 0.00 | 93 | 1035.5 |
| 20260505224022 | 52 | 210 | 0.0 | 2.0 | 0.00 | 0.04 | 0.00 | 93 | 1035.6 |
| 20260505223023 | 52 | 323 | 1.0 | 4.0 | 0.00 | 0.04 | 0.00 | 93 | 1035.4 |
| 20260505222022 | 52 | 323 | 2.0 | 4.0 | 0.00 | 0.04 | 0.00 | 93 | 1035.6 |
| 20260505221022 | 53 | 149 | 2.0 | 4.0 | 0.00 | 0.04 | 0.00 | 92 | 1035.6 |
| 20260505220026 | 53 | 224 | 2.0 | 4.0 | 0.00 | 0.04 | 0.00 | 92 | 1035.5 |
| 20260505215022 | 53 | 335 | 2.0 | 5.0 | 0.00 | 0.04 | 0.04 | 92 | 1035.3 |
| 20260505214023 | 53 | 326 | 2.0 | 5.0 | 0.00 | 0.04 | 0.04 | 91 | 1035.5 |
| 20260505213022 | 53 | 323 | 2.0 | 5.0 | 0.01 | 0.04 | 0.04 | 91 | 1035.3 |
| 20260505212023 | 53 | 324 | 3.0 | 6.0 | 0.01 | 0.04 | 0.04 | 90 | 1035.2 |
| 20260505211023 | 53 | 289 | 2.0 | 5.0 | 0.02 | 0.04 | 0.04 | 90 | 1035.3 |
| 20260505210023 | 53 | 296 | 2.0 | 6.0 | 0.02 | 0.04 | 0.04 | 90 | 1035.5 |
| 20260505205022 | 54 | 274 | 1.0 | 4.0 | 0.02 | 0.04 | 0.04 | 90 | 1035.4 |
| 20260505204023 | 54 | 209 | 2.0 | 7.0 | 0.02 | 0.04 | 0.04 | 88 | 1035.5 |
| 20260505203023 | 54 | 322 | 3.0 | 7.0 | 0.01 | 0.02 | 0.02 | 86 | 1035.5 |
| 20260505202022 | 56 | 269 | 4.0 | 8.0 | 0.01 | 0.02 | 0.02 | 78 | 1035.6 |
| 20260505201023 | 57 | 349 | 3.0 | 7.0 | 0.00 | 0.01 | 0.01 | 75 | 1035.6 |
| 20260505200022 | 57 | 305 | 5.0 | 14.0 | 0.00 | 0.01 | 0.01 | 72 | 1035.4 |
| 20260505195022 | 58 | 265 | 6.0 | 12.0 | 0.00 | 0.01 | 0.01 | 70 | 1035.4 |
| 20260505194022 | 58 | 181 | 3.0 | 11.0 | 0.00 | 0.01 | 0.01 | 73 | 1035.2 |
| 20260505193022 | 58 | 260 | 2.0 | 5.0 | 0.00 | 0.01 | 0.01 | 74 | 1035.0 |
| 20260505192022 | 58 | 282 | 2.0 | 7.0 | 0.00 | 0.01 | 0.01 | 75 | 1034.9 |
| 20260505191022 | 58 | 202 | 0.0 | 3.0 | 0.00 | 0.01 | 0.01 | 76 | 1034.3 |
| 20260505190022 | 58 | 159 | 1.0 | 4.0 | 0.00 | 0.01 | 0.01 | 76 | 1034.5 |
| 20260505185022 | 58 | 1 | 0.0 | 2.0 | 0.00 | 0.01 | 0.01 | 76 | 1034.2 |
| 20260505184022 | 58 | 0 | 0.0 | 1.0 | 0.00 | 0.01 | 0.01 | 75 | 1034.2 |
| 20260505183022 | 58 | 181 | 0.0 | 1.0 | 0.00 | 0.01 | 0.01 | 75 | 1034.2 |
| 20260505182022 | 58 | 173 | 0.0 | 2.0 | 0.00 | 0.01 | 0.01 | 74 | 1034.0 |
| 20260505181021 | 59 | 169 | 0.0 | 2.0 | 0.00 | 0.01 | 0.01 | 73 | 1034.1 |
| 20260505180023 | 59 | 171 | 1.0 | 2.0 | 0.00 | 0.01 | 0.01 | 72 | 1033.9 |
| 20260505175022 | 60 | 266 | 1.0 | 3.0 | 0.00 | 0.01 | 0.01 | 71 | 1033.7 |
| 20260505174021 | 60 | 137 | 1.0 | 2.0 | 0.00 | 0.01 | 0.01 | 71 | 1033.6 |
| 20260505173023 | 60 | 198 | 0.0 | 2.0 | 0.00 | 0.01 | 0.01 | 72 | 1033.4 |
| 20260505172022 | 61 | 320 | 0.0 | 2.0 | 0.00 | 0.01 | 0.01 | 70 | 1033.3 |
| 20260505171022 | 61 | 158 | 1.0 | 3.0 | 0.00 | 0.01 | 0.01 | 70 | 1033.3 |
| 20260505170023 | 61 | 214 | 2.0 | 4.0 | 0.00 | 0.01 | 0.01 | 71 | 1033.1 |
| 20260505165022 | 61 | 233 | 1.0 | 4.0 | 0.00 | 0.01 | 0.01 | 72 | 1033.1 |
| 20260505164021 | 61 | 235 | 1.0 | 3.0 | 0.00 | 0.01 | 0.01 | 71 | 1033.3 |
| 20260505163022 | 62 | 144 | 1.0 | 2.0 | 0.00 | 0.01 | 0.01 | 69 | 1033.8 |
| 20260505162022 | 62 | 279 | 2.0 | 4.0 | 0.00 | 0.01 | 0.01 | 68 | 1033.8 |
| 20260505161021 | 62 | 314 | 2.0 | 4.0 | 0.00 | 0.01 | 0.01 | 67 | 1033.9 |
| 20260505153023 | 62 | 178 | 2.0 | 4.0 | 0.00 | 0.01 | 0.01 | 68 | 1033.6 |
| 20260505152022 | 62 | 156 | 2.0 | 6.0 | 0.00 | 0.01 | 0.01 | 66 | 1033.8 |
| 20260505151022 | 62 | 229 | 3.0 | 5.0 | 0.00 | 0.01 | 0.01 | 66 | 1033.8 |
| 20260505125021 | 60 | 299 | 3.0 | 5.0 | 0.01 | 0.01 | 0.01 | 84 | 1034.4 |
| 20260505124022 | 60 | 151 | 3.0 | 5.0 | 0.01 | 0.01 | 0.01 | 83 | 1034.3 |
| 20260505123024 | 60 | 216 | 3.0 | 8.0 | 0.01 | 0.01 | 0.01 | 80 | 1034.8 |